When you browse on this site, cookies collect data to enhance your experience and personalize the content and advertising you see.
Visit our Privacy Policy to learn more. By continuing to use the site, you agree to this use of cookies and data.
  • In Deutschland
  • Länderverzeichnis
  • Für 7 Tage
  • Wassertemperatur
  • Wetterkarte
  • Widgets
  • user-avatar
    Anmelden

    Stündliche Wetter Elburg

    Heute, 21 Februar, Freitag

    Zeit Temperatur Niederschläge Wind Luftdruck Luftfeuchtigkeit
    00:00 +2°C° 0 mm 6 m/S 761 mmHg 77%
    01:00 +2°C° 0 mm 6 m/S 761 mmHg 77%
    02:00 +3°C° 0 mm 7 m/S 762 mmHg 76%
    03:00 +3°C° 0 mm 7 m/S 763 mmHg 76%
    04:00 +3°C° 0 mm 6 m/S 763 mmHg 78%
    05:00 +2°C° 0 mm 6 m/S 764 mmHg 80%
    06:00 +3°C° 0 mm 4 m/S 765 mmHg 82%
    13:00 +7°C° 0 mm 8 m/S 766 mmHg 67%
    14:00 +7°C° 0 mm 8 m/S 766 mmHg 68%
    15:00 +7°C° 0 mm 8 m/S 765 mmHg 69%
    16:00 +6°C° 0 mm 8 m/S 765 mmHg 71%
    17:00 +6°C° 0 mm 8 m/S 765 mmHg 73%
    18:00 +6°C° 0 mm 9 m/S 765 mmHg 75%
    19:00 +6°C° 0.1 mm 9 m/S 765 mmHg 76%
    20:00 +6°C° 0.1 mm 9 m/S 764 mmHg 76%
    21:00 +6°C° 0.1 mm 9 m/S 764 mmHg 77%
    22:00 +6°C° 0 mm 9 m/S 764 mmHg 77%
    23:00 +6°C° 0 mm 9 m/S 763 mmHg 76%

    Morgen, 22 Februar, Samstag

    Zeit Temperatur Niederschläge Wind Luftdruck Luftfeuchtigkeit
    00:00 +6°C° 0 mm 9 m/S 763 mmHg 76%
    01:00 +6°C° 0 mm 10 m/S 762 mmHg 76%
    02:00 +6°C° 0 mm 10 m/S 762 mmHg 76%
    03:00 +6°C° 0 mm 10 m/S 761 mmHg 76%
    04:00 +6°C° 0 mm 11 m/S 760 mmHg 75%
    05:00 +4°C° 0 mm 11 m/S 760 mmHg 75%
    06:00 +4°C° 0 mm 11 m/S 760 mmHg 75%
    07:00 +5°C° 0.1 mm 12 m/S 759 mmHg 75%
    08:00 +5°C° 0.1 mm 12 m/S 759 mmHg 74%
    09:00 +7°C° 0.1 mm 12 m/S 758 mmHg 74%
    10:00 +7°C° 0.1 mm 13 m/S 759 mmHg 74%
    11:00 +8°C° 0.1 mm 13 m/S 759 mmHg 75%
    12:00 +9°C° 0.1 mm 13 m/S 759 mmHg 76%
    13:00 +9°C° 0.1 mm 12 m/S 759 mmHg 72%
    14:00 +8°C° 0.1 mm 11 m/S 760 mmHg 69%
    15:00 +8°C° 0.1 mm 10 m/S 760 mmHg 66%
    16:00 +7°C° 0.1 mm 9 m/S 760 mmHg 67%
    17:00 +7°C° 0.1 mm 9 m/S 761 mmHg 68%
    18:00 +6°C° 0.1 mm 8 m/S 762 mmHg 69%
    19:00 +6°C° 0 mm 8 m/S 762 mmHg 69%
    20:00 +5°C° 0 mm 8 m/S 762 mmHg 68%
    21:00 +5°C° 0 mm 8 m/S 763 mmHg 68%
    22:00 +5°C° 0 mm 8 m/S 763 mmHg 69%
    23:00 +5°C° 0 mm 7 m/S 764 mmHg 69%

    übermorgen, 23 Februar, Sonntag

    Zeit Temperatur Niederschläge Wind Luftdruck Luftfeuchtigkeit
    00:00 +5°C° 0 mm 7 m/S 764 mmHg 70%
    01:00 +5°C° 0.1 mm 7 m/S 764 mmHg 72%
    02:00 +4°C° 0.1 mm 8 m/S 763 mmHg 73%
    03:00 +4°C° 0.1 mm 8 m/S 763 mmHg 75%
    04:00 +4°C° 0.5 mm 7 m/S 763 mmHg 80%
    05:00 +4°C° 0.5 mm 7 m/S 762 mmHg 85%
    06:00 +3°C° 0.5 mm 6 m/S 762 mmHg 90%
    07:00 +4°C° 1.3 mm 6 m/S 760 mmHg 92%
    08:00 +4°C° 1.3 mm 6 m/S 758 mmHg 93%
    09:00 +4°C° 1.3 mm 6 m/S 756 mmHg 94%
    10:00 +6°C° 2.2 mm 9 m/S 755 mmHg 90%
    11:00 +8°C° 2.2 mm 12 m/S 753 mmHg 86%
    12:00 +10°C° 2.2 mm 15 m/S 752 mmHg 82%
    13:00 +9°C° 0.6 mm 13 m/S 753 mmHg 82%
    14:00 +8°C° 0.6 mm 11 m/S 753 mmHg 82%
    15:00 +6°C° 0.6 mm 9 m/S 754 mmHg 82%
    16:00 +5°C° 0.1 mm 8 m/S 756 mmHg 82%
    17:00 +4°C° 0.1 mm 8 m/S 758 mmHg 82%
    18:00 +3°C° 0.1 mm 7 m/S 760 mmHg 82%
    19:00 +3°C° 0.2 mm 7 m/S 761 mmHg 80%
    20:00 +3°C° 0.2 mm 6 m/S 762 mmHg 78%
    21:00 +2°C° 0.2 mm 6 m/S 764 mmHg 76%
    22:00 +2°C° 0 mm 5 m/S 764 mmHg 76%
    23:00 +2°C° 0 mm 5 m/S 765 mmHg 77%

    24 Februar, Montag

    Zeit Temperatur Niederschläge Wind Luftdruck Luftfeuchtigkeit
    00:00 +2°C° 0 mm 5 m/S 766 mmHg 78%
    01:00 +1°C° 0 mm 5 m/S 766 mmHg 80%
    02:00 +1°C° 0 mm 5 m/S 766 mmHg 82%
    03:00 +1°C° 0 mm 4 m/S 766 mmHg 83%
    04:00 +1°C° 0 mm 4 m/S 766 mmHg 85%
    05:00 +1°C° 0 mm 4 m/S 766 mmHg 87%
    06:00 0°C° 0 mm 4 m/S 766 mmHg 88%
    07:00 +1°C° 0 mm 4 m/S 766 mmHg 85%
    08:00 +2°C° 0 mm 5 m/S 765 mmHg 81%
    09:00 +2°C° 0 mm 5 m/S 765 mmHg 77%
    10:00 +2°C° 0.1 mm 6 m/S 763 mmHg 78%
    11:00 +2°C° 0.1 mm 6 m/S 762 mmHg 79%
    12:00 +2°C° 0.1 mm 7 m/S 761 mmHg 79%
    13:00 +4°C° 0.1 mm 7 m/S 759 mmHg 83%
    14:00 +5°C° 0.1 mm 8 m/S 757 mmHg 87%
    15:00 +6°C° 0.1 mm 8 m/S 756 mmHg 91%
    16:00 +7°C° 0.4 mm 9 m/S 755 mmHg 89%
    17:00 +7°C° 0.4 mm 9 m/S 754 mmHg 87%
    18:00 +7°C° 0.4 mm 10 m/S 753 mmHg 86%
    19:00 +8°C° 0.1 mm 10 m/S 753 mmHg 85%
    20:00 +8°C° 0.1 mm 10 m/S 752 mmHg 85%
    21:00 +8°C° 0.1 mm 10 m/S 752 mmHg 85%
    22:00 +7°C° 0 mm 9 m/S 752 mmHg 82%
    23:00 +5°C° 0 mm 9 m/S 752 mmHg 80%

    25 Februar, Dienstag

    Zeit Temperatur Niederschläge Wind Luftdruck Luftfeuchtigkeit
    00:00 +4°C° 0 mm 8 m/S 751 mmHg 77%
    01:00 +4°C° 0 mm 8 m/S 751 mmHg 74%
    02:00 +3°C° 0 mm 9 m/S 751 mmHg 72%
    03:00 +3°C° 0 mm 9 m/S 751 mmHg 69%
    04:00 +3°C° 0 mm 9 m/S 751 mmHg 69%
    05:00 +2°C° 0 mm 9 m/S 751 mmHg 68%
    06:00 +2°C° 0 mm 9 m/S 751 mmHg 68%
    07:00 +2°C° 0 mm 10 m/S 750 mmHg 66%
    08:00 +3°C° 0 mm 10 m/S 750 mmHg 65%
    09:00 +3°C° 0 mm 11 m/S 750 mmHg 64%
    10:00 +3°C° 0.1 mm 11 m/S 750 mmHg 62%
    11:00 +4°C° 0.1 mm 12 m/S 750 mmHg 61%
    12:00 +4°C° 0.1 mm 12 m/S 749 mmHg 60%
    13:00 +4°C° 0.1 mm 11 m/S 749 mmHg 60%
    14:00 +4°C° 0.1 mm 11 m/S 749 mmHg 61%
    15:00 +3°C° 0.1 mm 11 m/S 748 mmHg 61%
    16:00 +3°C° 0.1 mm 9 m/S 748 mmHg 64%
    17:00 +2°C° 0.1 mm 8 m/S 748 mmHg 68%
    18:00 +2°C° 0.1 mm 6 m/S 748 mmHg 71%
    19:00 +2°C° 0 mm 6 m/S 747 mmHg 73%
    20:00 +2°C° 0 mm 5 m/S 747 mmHg 75%
    21:00 +2°C° 0 mm 5 m/S 746 mmHg 78%
    22:00 +1°C° 0.1 mm 5 m/S 746 mmHg 82%
    23:00 +1°C° 0.1 mm 5 m/S 745 mmHg 86%

    26 Februar, Mittwoch

    Zeit Temperatur Niederschläge Wind Luftdruck Luftfeuchtigkeit
    00:00 +1°C° 0.1 mm 5 m/S 744 mmHg 90%
    01:00 +1°C° 0.2 mm 4 m/S 744 mmHg 91%
    02:00 +1°C° 0.2 mm 4 m/S 744 mmHg 93%
    03:00 +1°C° 0.2 mm 3 m/S 743 mmHg 94%
    04:00 +1°C° 0.3 mm 4 m/S 744 mmHg 92%
    05:00 +1°C° 0.3 mm 4 m/S 744 mmHg 91%
    06:00 +1°C° 0.3 mm 4 m/S 744 mmHg 89%
    07:00 +1°C° 0.3 mm 6 m/S 745 mmHg 84%
    08:00 +2°C° 0.3 mm 7 m/S 746 mmHg 78%
    09:00 +2°C° 0.3 mm 8 m/S 747 mmHg 73%
    10:00 +2°C° 0.1 mm 9 m/S 748 mmHg 69%
    11:00 +3°C° 0.1 mm 9 m/S 749 mmHg 66%
    12:00 +3°C° 0.1 mm 9 m/S 750 mmHg 62%
    13:00 +3°C° 0.3 mm 9 m/S 750 mmHg 64%
    14:00 +3°C° 0.3 mm 9 m/S 751 mmHg 66%
    15:00 +2°C° 0.3 mm 8 m/S 751 mmHg 68%
    16:00 +3°C° 0.1 mm 7 m/S 751 mmHg 72%
    17:00 +2°C° 0.1 mm 6 m/S 752 mmHg 75%
    18:00 +1°C° 0.1 mm 5 m/S 752 mmHg 78%
    19:00 +1°C° 0 mm 5 m/S 753 mmHg 79%
    20:00 +1°C° 0 mm 5 m/S 753 mmHg 79%
    21:00 +1°C° 0 mm 4 m/S 754 mmHg 79%
    22:00 +1°C° 0.1 mm 5 m/S 754 mmHg 80%
    23:00 +1°C° 0.1 mm 5 m/S 754 mmHg 80%
    Mehr zeigen